User: anonymous   Login
Location: Unspecified
(0.0000°N, 0.0000°E)
Time: 04:34:31
(UTC+00:00)
Language:

ONEWEB-0677 - Orbit

View from above orbital plane
View from above orbital plane
View from above satellite
View from above satellite

Ground track
Ground track

The orbit is defined by the following mean orbital elements,

1 56713U          26145.38308376 +.00000000 +00000-0 +10778-3 0 00007
2 56713  87.9172 278.9812 0002310 101.0945 259.0449 13.20771760    08
Epoch (UTC): 25 May 2026 09:11:38
Eccentricity: 0.0002310
inclination: 87.9172°
perigee height: 1180 km
apogee height: 1184 km
right ascension of ascending node: 278.9812°
argument of perigee: 101.0945°
revolutions per day: 13.20771760
mean anomaly at epoch: 259.0449°

The dashed part of the orbit path shows where the satellite is in the earth's shadow,  

DLR